Regional Weather Roundup
Issued by NWS

Home | Current Version | Previous Version | Text Only | Print | Product List | Glossary Off
Versions: 1 2 3 4 5 6 7 8 9 10 11 12 13 14 15 16 17 18 19 20 21 22 23 24 25 26 27 28 29 30 31 32 33 34 35 36 37 38 39 40 41 42 43 44 45 46 47 48 49 50

000
ASUS45 KABQ 190610
RWRNM
WEATHER ROUNDUP FOR NEW MEXICO
NATIONAL WEATHER SERVICE ALBUQUERQUE NM
1200 AM MDT SAT APR 19 2014

NOTE: "FAIR" MEANS FEW OR NO CLOUDS BELOW 12,000 FEET AGL WITH NO
       SIGNIFICANT WEATHER OR OBSTRUCTIONS TO VISION.

      THIS PRODUCT IS RELEASED AS TWO VERSIONS.  ONE VERSION NEAR
      THE TOP OF THE HOUR CONTAINING PRELIMINARY DATA FROM ALBUQUERQUE
      AND OTHER STATIONS.  A FINAL VERSION WITH ADDITIONAL DATA IS
      ISSUED ABOUT 10 MINUTES AFTER THE HOUR.

NMZ501-503-504-510>518-190700-
NORTHWEST PLATEAU/NORTHCENTRAL MOUNTAINS

CITY           SKY/WX    TMP DP  RH WIND       PRES   REMARKS
FARMINGTON     CLOUDY    57  32  38 W3        30.09R
6HR MIN TEMP:  56; 6HR MAX TEMP:  71; 6HR PCP: TRACE;

LOS ALAMOS     CLOUDY    54  31  42 SW21G30   30.19R
SANTA FE       MOCLDY    57  33  40 SW22G29   30.16R
6HR MIN TEMP:  57; 6HR MAX TEMP:  70;

TAOS           MOCLDY    52  23  32 SE7       30.15F
ANGEL FIRE     FAIR      49  28  43 S7        30.20S

$$
NMZ402-403-502-505>509-190700-
WESTCENTRAL MOUNTAINS/SOUTHWEST MOUNTAINS

CITY           SKY/WX    TMP DP  RH WIND       PRES   REMARKS
GALLUP         CLOUDY    47  39  74 CALM      30.16F
6HR MIN TEMP:  47; 6HR MAX TEMP:  65; 6HR PCP: TRACE;

GRANTS         CLOUDY    47  34  60 SE5       30.18S
SILVER CITY    CLOUDY    55  32  41 NW6       30.10S

$$
NMZ407-409-411-412-190700-
SOUTHERN DESERTS

CITY           SKY/WX    TMP DP  RH WIND       PRES   REMARKS
LORDSBURG      MOCLDY    59  41  51 W12       30.04S
DEMING         MOCLDY    64  35  34 CALM      30.02F
6HR MIN TEMP:  64; 6HR MAX TEMP:  73;

LAS CRUCES     CLOUDY    67  31  26 NE3       30.05S
HOLLOMAN AFB   MOCLDY    60  51  72 NE6       30.04S HAZE
ALAMOGORDO     MOCLDY    59  46  63 NE5       30.05S
T OR C         MOCLDY    65  29  25 NW8       30.07S
6HR MIN TEMP:  64; 6HR MAX TEMP:  76;


$$
NMZ519>523-190700-
CENTRAL VALLEYS/CENTRAL HIGHLANDS

CITY           SKY/WX    TMP DP  RH WIND       PRES   REMARKS
ALBUQUERQUE    LGT RAIN  60  39  45 SE5       30.14S
6HR MIN TEMP:  59; 6HR MAX TEMP:  75; 6HR PCP: TRACE;

DOUBLE EAGLE   CLOUDY    56  37  49 CALM      30.15F
MORIARTY ARPT  CLOUDY    57  32  39 W16       30.19R
6HR MIN TEMP:  55; 6HR MAX TEMP:  71;

CLINES CORNERS CLOUDY    54  32  43 W23       30.18R
6HR MIN TEMP:  49; 6HR MAX TEMP:  67;

BELEN          CLOUDY    61  35  37 CALM      30.12S
6HR MIN TEMP:  59; 6HR MAX TEMP:  74;

SOCORRO        FAIR      58  35  42 CALM      30.10R
6HR MIN TEMP:  58; 6HR MAX TEMP:  77;


$$
NMZ524>526-539-540-190700-
SOUTHCENTRAL MOUNTAINS

CITY           SKY/WX    TMP DP  RH WIND       PRES   REMARKS
RUIDOSO        CLOUDY    50  41  71 SW5       30.21S

$$
NMZ527>531-190700-
NORTHEAST HIGHLANDS/NORTHEAST PLAINS

CITY           SKY/WX    TMP DP  RH WIND       PRES   REMARKS
LAS VEGAS      PTCLDY    45  35  68 S14       30.15S
6HR MIN TEMP:  45; 6HR MAX TEMP:  62;

RATON          MOCLDY    52  38  58 S10       30.09R
6HR MIN TEMP:  52; 6HR MAX TEMP:  69;

CLAYTON        MOCLDY    56  41  57 S14       30.05S
6HR MIN TEMP:  55; 6HR MAX TEMP:  72;


$$
NMZ532>537-190700-
EASTCENTRAL PLAINS

CITY           SKY/WX    TMP DP  RH WIND       PRES   REMARKS
TUCUMCARI      MOCLDY    62  44  51 S26G37    30.03S
6HR MIN TEMP:  62; 6HR MAX TEMP:  73;

CANNON AFB     CLEAR     52  43  71 S9        30.11S
6HR MIN TEMP:  52; 6HR MAX TEMP:  67;

CLOVIS AIRPORT PTCLDY    52  41  66 S9        30.14R

$$
NMZ028-029-538-190700-
SOUTHEAST PLAINS

CITY           SKY/WX    TMP DP  RH WIND       PRES   REMARKS
ROSWELL        CLOUDY    63  44  50 S9        30.07R
6HR MIN TEMP:  63; 6HR MAX TEMP:  73;

ARTESIA        CLOUDY    64  45  48 S12       30.07R
CARLSBAD       MOCLDY    67  45  45 SE14G24   30.05R
6HR MIN TEMP:  67; 6HR MAX TEMP:  78;

HOBBS          FAIR      61  45  55 SE12      30.10S


$$



USA.gov is the U.S. government's official web portal to all federal, state and local government web resources and services.